Location: Krakow
(50.0830°N, 19.9170°E)
Time: 16:19:04
(UTC+01:00)

Vanguard 1 - All Passes

Search period start: 02 December 2023 00:00
Search period end: 12 December 2023 00:00
Orbit: 651 x 3828 km, 34.3° (Epoch: 01 December)

Date Brightness Start Highest point End Pass type
(mag) Time Alt. Az. Time Alt. Az. Time Alt. Az.
02 Dec - 02:15:09 10° W 02:23:09 13° WSW 02:30:13 10° SSW night (unlit)
02 Dec - 16:58:56 10° SSW 17:12:36 32° SE 17:30:44 10° E visible
02 Dec - 19:17:13 10° SW 19:35:16 49° SSE 19:56:44 10° ESE visible
02 Dec - 21:39:14 10° WSW 21:59:45 48° SSW 22:19:26 10° SE visible
03 Dec - 00:04:36 10° W 00:22:45 31° SW 00:37:53 10° SSE visible
03 Dec - 15:05:55 10° SSE 15:12:38 14° SE 15:20:36 10° E daylight
03 Dec - 17:18:12 10° SSW 17:32:31 37° SSE 17:51:52 10° E visible
03 Dec - 19:37:21 10° WSW 19:55:42 51° S 20:17:17 10° ESE visible
03 Dec - 21:59:51 10° W 22:20:06 45° SSW 22:39:22 10° SE visible
04 Dec - 00:26:07 10° W 00:42:32 26° SW 00:56:31 10° S visible
04 Dec - 15:22:55 10° SSE 15:32:03 19° SE 15:43:48 10° E daylight
04 Dec - 17:37:45 10° SW 17:52:34 41° SSE 18:12:49 10° E visible
04 Dec - 19:57:37 10° WSW 20:16:10 51° S 20:37:43 10° ESE visible
04 Dec - 22:20:35 10° W 22:40:22 41° SSW 22:59:04 10° SE visible
05 Dec - 00:48:12 10° W 01:02:10 20° SW 01:14:26 10° S visible
05 Dec - 15:41:09 10° S 15:51:35 24° SE 16:05:52 10° E daylight
05 Dec - 17:57:32 10° SW 18:12:44 45° SSE 18:33:38 10° E visible
05 Dec - 20:17:59 10° WSW 20:36:38 50° S 20:58:02 10° ESE visible
05 Dec - 22:41:28 10° W 23:00:31 37° SSW 23:18:29 10° SSE visible
06 Dec - 01:11:25 10° W 01:21:42 15° SW 01:31:05 10° SSW visible
06 Dec - 16:00:00 10° SSW 16:11:15 29° SE 16:27:23 10° E visible
06 Dec - 18:17:29 10° SW 18:33:01 47° SSE 18:54:21 10° ESE visible
06 Dec - 20:38:26 10° WSW 20:57:06 48° SSW 21:18:10 10° SE visible
06 Dec - 23:02:32 10° W 23:20:33 32° SW 23:37:33 10° SSE visible
07 Dec - 14:09:21 10° SE 14:12:06 11° ESE 14:15:05 10° ESE daylight
07 Dec - 16:19:14 10° SSW 16:31:05 34° SSE 16:48:35 10° E visible
07 Dec - 18:37:34 10° WSW 18:53:23 49° S 19:14:58 10° ESE visible
07 Dec - 20:58:57 10° W 21:17:29 45° SSW 21:38:08 10° SE visible
07 Dec - 23:23:56 10° W 23:40:26 27° SW 23:56:08 10° S visible
08 Dec - 14:24:56 10° SSE 14:31:27 16° SE 14:39:46 10° E daylight
08 Dec - 16:38:46 10° SW 16:51:04 38° SSE 17:09:36 10° E visible
08 Dec - 18:57:46 10° WSW 19:13:48 49° S 19:35:27 10° ESE visible
08 Dec - 21:19:36 10° W 21:37:49 41° SSW 21:57:50 10° SE visible
08 Dec - 23:45:51 10° W 00:00:13 21° SW 00:14:00 10° S visible
09 Dec - 14:42:54 10° S 14:50:57 20° SE 15:02:07 10° E daylight
09 Dec - 16:58:30 10° SW 17:11:08 42° SSE 17:30:29 10° E visible
09 Dec - 19:18:03 10° WSW 19:34:14 48° S 19:55:49 10° ESE visible
09 Dec - 21:40:23 10° W 21:58:03 36° SSW 22:17:14 10° SSE visible
10 Dec - 00:08:49 10° W 00:19:54 16° SW 00:30:41 10° SSW visible
10 Dec - 15:01:38 10° S 15:10:35 25° SE 15:23:45 10° E daylight
10 Dec - 17:18:25 10° SW 17:31:21 45° SSE 17:51:15 10° ESE visible
10 Dec - 19:38:26 10° WSW 19:54:41 46° S 20:16:00 10° SE visible
10 Dec - 22:01:22 10° W 22:18:11 32° SW 22:36:16 10° SSE visible
11 Dec - 00:35:20 10° WSW 00:39:30 11° SW 00:43:37 10° SW visible
11 Dec - 15:20:50 10° SSW 15:30:21 30° SE 15:45:01 10° E daylight
11 Dec - 17:38:27 10° WSW 17:51:39 46° S 18:11:54 10° ESE visible
11 Dec - 19:58:54 10° W 20:15:06 43° SSW 20:35:59 10° SE visible
11 Dec - 22:22:41 10° W 22:38:13 26° SW 22:54:47 10° S visible
